Flag for U.S.A. Weather past 2 weeks in Kailua-Kona, Hawaii, U.S.A.

Now
84 °F

Passing clouds.


Feels Like: 86 °F
Forecast: 72 / 78 °F
Wind: 9 mph from Southwest

Location: Keahole Airport

Current Time: Aug 30, 2014 at 4:55:25 PM

Latest Report: Aug 30, 2014 at 3:53 PM


Visibility: 10 mi

Pressure: 29.88 "Hg

Humidity: 55%

Dew point: 66 °F

Location of Kailua-KonaLocation

Historic Weather in Kailua-Kona — Graph

°F

Kailua-Kona temperature yesterday

Maximum temperature yesterday: 85 °F (at 1:53 PM)
Minimum temperature yesterday: 77 °F (at 1:53 AM)
Average temperature yesterday: 80 °F

Past Weeks' High & Low Weather Summary

 TemperatureHumidityPressure
High88 °F (Aug 23, 10:53 AM)87% (Aug 26, 2:53 AM)30.01 "Hg (Aug 26, 2:53 AM)
Low73 °F (Aug 25, 5:53 AM)44% (Aug 23, 7:53 AM)29.81 "Hg (Aug 28, 3:53 PM)
Average81 °F66%29.91 "Hg
* Reported Aug 15 3:53 PM — Aug 30 3:53 PM, Kailua-Kona, Weather by CustomWeather, © 2014

Note: Actual official high and low records may vary slightly from our data, if they occured in-between our weather recording intervals... More about our weather records

Advertising

Kailua-Kona weather history for previous 24 hours

 ConditionsComfort  
Time TempWeatherWind HumidityBarometerVisibility
3:53 PM
Aug 30
84 °FPassing clouds.9 mph55%29.88 "Hg10 mi
2:53 PM86 °FPassing clouds.9 mph51%29.89 "Hg10 mi
1:53 PM86 °FSunny.13 mph55%29.90 "Hg10 mi
12:53 PM85 °FScattered clouds.12 mph55%29.91 "Hg10 mi
11:53 AM85 °FPassing clouds.10 mph55%29.93 "Hg10 mi
10:53 AM84 °FSunny.9 mph65%29.94 "Hg10 mi
9:53 AM82 °FPassing clouds.9 mph70%29.94 "Hg10 mi
8:53 AM81 °FSunny.6 mph69%29.93 "Hg10 mi
7:53 AM79 °FPassing clouds.No wind74%29.93 "Hg10 mi
6:53 AM75 °FSunny.3 mph76%29.91 "Hg10 mi
5:53 AM74 °FPassing clouds.5 mph76%29.90 "Hg10 mi
5:28 AM75 °FPartly cloudy.5 mph74%29.89 "Hg10 mi
5:16 AM73 °FMostly cloudy.No wind78%29.89 "Hg10 mi
5:03 AM75 °FMostly cloudy.3 mph74%29.89 "Hg10 mi
4:53 AM75 °FPassing clouds.No wind76%29.88 "Hg10 mi
3:53 AM74 °FClear.3 mph82%29.88 "Hg10 mi
2:53 AM75 °FClear.No wind79%29.87 "Hg10 mi
1:53 AM76 °FClear.6 mph80%29.88 "Hg10 mi
12:53 AM77 °FPassing clouds.5 mph79%29.90 "Hg10 mi
11:53 PM
Aug 29
79 °FMostly cloudy.6 mph69%29.91 "Hg10 mi
10:53 PM79 °FClear.5 mph72%29.91 "Hg10 mi
9:53 PM79 °FClear.9 mph69%29.91 "Hg10 mi
9:32 PM79 °FPassing clouds.8 mph74%29.91 "Hg10 mi
8:53 PM80 °FPartly cloudy.10 mph69%29.91 "Hg10 mi
7:53 PM81 °FPassing clouds.10 mph72%29.89 "Hg10 mi
6:53 PM81 °FPartly cloudy.10 mph72%29.87 "Hg10 mi
5:53 PM83 °FPassing clouds.13 mph68%29.86 "Hg10 mi
4:53 PM83 °FMostly cloudy.13 mph68%29.85 "Hg10 mi
Weather by CustomWeather, © 2014

See weather overviewHow to use our weather pages